owner,sensor,date,latitude,longitude,vertical_datum,sea_water_practical_salinity,qcFlag 
ENP,ioos.station.NOAA.NDBC:GBTF1:1,2018-01-01T00:00:00Z,25.1670,-80.8010,1.5,24.7,11111222 
ENP,ioos.station.NOAA.NDBC:GBTF1:1,2018-01-01T01:00:00Z,25.1670,-80.8010,1.5,24.72,1111122 
ENP,ioos.station.NOAA.NDBC:GBTF1:1,2018-01-01T02:00:00Z,25.1670,-80.8010,1.5,24.79,1111122 
ENP,ioos.station.NOAA.NDBC:GBTF1:1,2018-01-01T03:00:00Z,25.1670,-80.8010,1.5,24.8,11111222 
ENP,ioos.station.NOAA.NDBC:GBTF1:1,2018-01-01T04:00:00Z,25.1670,-80.8010,1.5,24.79,1111122 
ENP,ioos.station.NOAA.NDBC:GBTF1:1,2018-01-01T05:00:00Z,25.1670,-80.8010,1.5,24.79,1111122 
ENP,ioos.station.NOAA.NDBC:GBTF1:1,2018-01-01T06:00:00Z,25.1670,-80.8010,1.5,24.8,11111222 
ENP,ioos.station.NOAA.NDBC:GBTF1:1,2018-01-01T07:00:00Z,25.1670,-80.8010,1.5,25.56,1111122 
ENP,ioos.station.NOAA.NDBC:GBTF1:1,2018-01-01T08:00:00Z,25.1670,-80.8010,1.5,26.2,1111122 
ENP,ioos.station.NOAA.NDBC:GBTF1:1,2018-01-01T09:00:00Z,25.1670,-80.8010,1.5,26.48,1111122 
ENP,ioos.station.NOAA.NDBC:GBTF1:1,2018-01-01T10:00:00Z,25.1670,-80.8010,1.5,26.77,1111122 
ENP,ioos.station.NOAA.NDBC:GBTF1:1,2018-01-01T11:00:00Z,25.1670,-80.8010,1.5,26.9,11111222 
ENP,ioos.station.NOAA.NDBC:GBTF1:1,2018-01-01T12:00:00Z,25.1670,-80.8010,1.5,27.0,11111222 
ENP,ioos.station.NOAA.NDBC:GBTF1:1,2018-01-01T13:00:00Z,25.1670,-80.8010,1.5,27.05,1111122 
ENP,ioos.station.NOAA.NDBC:GBTF1:1,2018-01-01T14:00:00Z,25.1670,-80.8010,1.5,27.12,1111122 
ENP,ioos.station.NOAA.NDBC:GBTF1:1,2018-01-01T15:00:00Z,25.1670,-80.8010,1.5,27.2,1111122 
ENP,ioos.station.NOAA.NDBC:GBTF1:1,2018-01-01T16:00:00Z,25.1670,-80.8010,1.5,27.27,1111122 
ENP,ioos.station.NOAA.NDBC:GBTF1:1,2018-01-01T17:00:00Z,25.1670,-80.8010,1.5,26.91,1111122 
ENP,ioos.station.NOAA.NDBC:GBTF1:1,2018-01-01T18:00:00Z,25.1670,-80.8010,1.5,26.34,1111122 
ENP,ioos.station.NOAA.NDBC:GBTF1:1,2018-01-01T19:00:00Z,25.1670,-80.8010,1.5,26.27,1111122 
ENP,ioos.station.NOAA.NDBC:GBTF1:1,2018-01-01T20:00:00Z,25.1670,-80.8010,1.5,26.27,1111122 
ENP,ioos.station.NOAA.NDBC:GBTF1:1,2018-01-01T21:00:00Z,25.1670,-80.8010,1.5,26.27,1111122 
ENP,ioos.station.NOAA.NDBC:GBTF1:1,2018-01-01T22:00:00Z,25.1670,-80.8010,1.5,26.48,1111122 
ENP,ioos.station.NOAA.NDBC:GBTF1:1,2018-01-01T23:00:00Z,25.1670,-80.8010,1.5,26.56,1111122 
ENP,ioos.station.NOAA.NDBC:GBTF1:1,2018-01-02T00:00:00Z,25.1670,-80.8010,1.5,26.63,1111122 
ENP,ioos.station.NOAA.NDBC:GBTF1:1,2018-01-02T01:00:00Z,25.1670,-80.8010,1.5,26.7,1111122 
ENP,ioos.station.NOAA.NDBC:GBTF1:1,2018-01-02T02:00:00Z,25.1670,-80.8010,1.5,25.63,1111122 
ENP,ioos.station.NOAA.NDBC:GBTF1:1,2018-01-02T03:00:00Z,25.1670,-80.8010,1.5,24.7,11111222 
ENP,ioos.station.NOAA.NDBC:GBTF1:1,2018-01-02T04:00:00Z,25.1670,-80.8010,1.5,23.74,1111122 
ENP,ioos.station.NOAA.NDBC:GBTF1:1,2018-01-02T05:00:00Z,25.1670,-80.8010,1.5,23.46,1111122 
ENP,ioos.station.NOAA.NDBC:GBTF1:1,2018-01-02T06:00:00Z,25.1670,-80.8010,1.5,23.3,11111222 
ENP,ioos.station.NOAA.NDBC:GBTF1:1,2018-01-02T07:00:00Z,25.1670,-80.8010,1.5,23.04,1111122 
ENP,ioos.station.NOAA.NDBC:GBTF1:1,2018-01-02T08:00:00Z,25.1670,-80.8010,1.5,22.97,1111122 
ENP,ioos.station.NOAA.NDBC:GBTF1:1,2018-01-02T09:00:00Z,25.1670,-80.8010,1.5,23.25,1111122 
ENP,ioos.station.NOAA.NDBC:GBTF1:1,2018-01-02T10:00:00Z,25.1670,-80.8010,1.5,23.6,1111122 
ENP,ioos.station.NOAA.NDBC:GBTF1:1,2018-01-02T11:00:00Z,25.1670,-80.8010,1.5,24.7,11111222 
ENP,ioos.station.NOAA.NDBC:GBTF1:1,2018-01-02T12:00:00Z,25.1670,-80.8010,1.5,25.1,11111222 
ENP,ioos.station.NOAA.NDBC:GBTF1:1,2018-01-02T13:00:00Z,25.1670,-80.8010,1.5,25.35,1111122 
ENP,ioos.station.NOAA.NDBC:GBTF1:1,2018-01-02T14:00:00Z,25.1670,-80.8010,1.5,25.28,1111122 
ENP,ioos.station.NOAA.NDBC:GBTF1:1,2018-01-02T15:00:00Z,25.1670,-80.8010,1.5,25.21,1111122 
ENP,ioos.station.NOAA.NDBC:GBTF1:1,2018-01-02T16:00:00Z,25.1670,-80.8010,1.5,25.21,1111122 
ENP,ioos.station.NOAA.NDBC:GBTF1:1,2018-01-02T17:00:00Z,25.1670,-80.8010,1.5,24.7,11111222 
ENP,ioos.station.NOAA.NDBC:GBTF1:1,2018-01-02T18:00:00Z,25.1670,-80.8010,1.5,24.4,11111222 
ENP,ioos.station.NOAA.NDBC:GBTF1:1,2018-01-02T19:00:00Z,25.1670,-80.8010,1.5,24.3,1111122 
ENP,ioos.station.NOAA.NDBC:GBTF1:1,2018-01-02T20:00:00Z,25.1670,-80.8010,1.5,24.3,1111122 
ENP,ioos.station.NOAA.NDBC:GBTF1:1,2018-01-02T21:00:00Z,25.1670,-80.8010,1.5,23.95,1111122 
ENP,ioos.station.NOAA.NDBC:GBTF1:1,2018-01-02T22:00:00Z,25.1670,-80.8010,1.5,23.95,1111122 
ENP,ioos.station.NOAA.NDBC:GBTF1:1,2018-01-02T23:00:00Z,25.1670,-80.8010,1.5,23.88,1111122 
ENP,ioos.station.NOAA.NDBC:GBTF1:1,2018-01-03T00:00:00Z,25.1670,-80.8010,1.5,21.72,1111122 
ENP,ioos.station.NOAA.NDBC:GBTF1:1,2018-01-03T01:00:00Z,25.1670,-80.8010,1.5,21.72,1111122 
ENP,ioos.station.NOAA.NDBC:GBTF1:1,2018-01-03T02:00:00Z,25.1670,-80.8010,1.5,21.58,1111122 
ENP,ioos.station.NOAA.NDBC:GBTF1:1,2018-01-03T03:00:00Z,25.1670,-80.8010,1.5,20.5,11111222 
ENP,ioos.station.NOAA.NDBC:GBTF1:1,2018-01-03T04:00:00Z,25.1670,-80.8010,1.5,20.3,11111222 
ENP,ioos.station.NOAA.NDBC:GBTF1:1,2018-01-03T05:00:00Z,25.1670,-80.8010,1.5,20.75,1111122 
ENP,ioos.station.NOAA.NDBC:GBTF1:1,2018-01-03T06:00:00Z,25.1670,-80.8010,1.5,21.4,11111222 
ENP,ioos.station.NOAA.NDBC:GBTF1:1,2018-01-03T07:00:00Z,25.1670,-80.8010,1.5,20.13,1111122 
ENP,ioos.station.NOAA.NDBC:GBTF1:1,2018-01-03T08:00:00Z,25.1670,-80.8010,1.5,20.89,1111122 
ENP,ioos.station.NOAA.NDBC:GBTF1:1,2018-01-03T09:00:00Z,25.1670,-80.8010,1.5,21.99,1111122 
ENP,ioos.station.NOAA.NDBC:GBTF1:1,2018-01-03T10:00:00Z,25.1670,-80.8010,1.5,23.11,1111122 
ENP,ioos.station.NOAA.NDBC:GBTF1:1,2018-01-03T11:00:00Z,25.1670,-80.8010,1.5,23.6,11111222 
ENP,ioos.station.NOAA.NDBC:GBTF1:1,2018-01-03T12:00:00Z,25.1670,-80.8010,1.5,23.8,11111222 
ENP,ioos.station.NOAA.NDBC:GBTF1:1,2018-01-03T13:00:00Z,25.1670,-80.8010,1.5,23.95,1111122 
ENP,ioos.station.NOAA.NDBC:GBTF1:1,2018-01-03T14:00:00Z,25.1670,-80.8010,1.5,24.02,1111122 
ENP,ioos.station.NOAA.NDBC:GBTF1:1,2018-01-03T15:00:00Z,25.1670,-80.8010,1.5,23.11,1111122 
ENP,ioos.station.NOAA.NDBC:GBTF1:1,2018-01-03T16:00:00Z,25.1670,-80.8010,1.5,23.04,1111122 
ENP,ioos.station.NOAA.NDBC:GBTF1:1,2018-01-03T17:00:00Z,25.1670,-80.8010,1.5,23.04,1111122 
ENP,ioos.station.NOAA.NDBC:GBTF1:1,2018-01-03T18:00:00Z,25.1670,-80.8010,1.5,23.32,1111122 
ENP,ioos.station.NOAA.NDBC:GBTF1:1,2018-01-03T19:00:00Z,25.1670,-80.8010,1.5,20.89,1111122 
ENP,ioos.station.NOAA.NDBC:GBTF1:1,2018-01-03T20:00:00Z,25.1670,-80.8010,1.5,19.24,1111122 
ENP,ioos.station.NOAA.NDBC:GBTF1:1,2018-01-03T21:00:00Z,25.1670,-80.8010,1.5,21.86,1111122 
ENP,ioos.station.NOAA.NDBC:GBTF1:1,2018-01-03T22:00:00Z,25.1670,-80.8010,1.5,26.48,1111122 
ENP,ioos.station.NOAA.NDBC:GBTF1:1,2018-01-03T23:00:00Z,25.1670,-80.8010,1.5,22.83,1111122 
ENP,ioos.station.NOAA.NDBC:GBTF1:1,2018-01-04T00:00:00Z,25.1670,-80.8010,1.5,23.04,1111122 
ENP,ioos.station.NOAA.NDBC:GBTF1:1,2018-01-04T01:00:00Z,25.1670,-80.8010,1.5,18.15,1111122 
ENP,ioos.station.NOAA.NDBC:GBTF1:1,2018-01-04T02:00:00Z,25.1670,-80.8010,1.5,18.09,1111122 
ENP,ioos.station.NOAA.NDBC:GBTF1:1,2018-01-04T03:00:00Z,25.1670,-80.8010,1.5,18.4,11111222 
ENP,ioos.station.NOAA.NDBC:GBTF1:1,2018-01-04T04:00:00Z,25.1670,-80.8010,1.5,19.38,1111122 
ENP,ioos.station.NOAA.NDBC:GBTF1:1,2018-01-04T05:00:00Z,25.1670,-80.8010,1.5,19.4,11111222 
ENP,ioos.station.NOAA.NDBC:GBTF1:1,2018-01-04T06:00:00Z,25.1670,-80.8010,1.5,19.6,11111222 
ENP,ioos.station.NOAA.NDBC:GBTF1:1,2018-01-04T07:00:00Z,25.1670,-80.8010,1.5,19.65,1111122 
ENP,ioos.station.NOAA.NDBC:GBTF1:1,2018-01-04T08:00:00Z,25.1670,-80.8010,1.5,19.38,1111122 
ENP,ioos.station.NOAA.NDBC:GBTF1:1,2018-01-04T09:00:00Z,25.1670,-80.8010,1.5,19.17,1111122 
ENP,ioos.station.NOAA.NDBC:GBTF1:1,2018-01-04T10:00:00Z,25.1670,-80.8010,1.5,19.31,1111122 
ENP,ioos.station.NOAA.NDBC:GBTF1:1,2018-01-04T12:00:00Z,25.1670,-80.8010,1.5,23.9,11111222 
ENP,ioos.station.NOAA.NDBC:GBTF1:1,2018-01-04T13:00:00Z,25.1670,-80.8010,1.5,23.4,11111222 
ENP,ioos.station.NOAA.NDBC:GBTF1:1,2018-01-04T14:00:00Z,25.1670,-80.8010,1.5,23.5,11111222 
ENP,ioos.station.NOAA.NDBC:GBTF1:1,2018-01-04T15:00:00Z,25.1670,-80.8010,1.5,23.04,1111122 
ENP,ioos.station.NOAA.NDBC:GBTF1:1,2018-01-04T16:00:00Z,25.1670,-80.8010,1.5,22.3,11111222 
ENP,ioos.station.NOAA.NDBC:GBTF1:1,2018-01-04T17:00:00Z,25.1670,-80.8010,1.5,22.27,1111122 
ENP,ioos.station.NOAA.NDBC:GBTF1:1,2018-01-04T18:00:00Z,25.1670,-80.8010,1.5,22.2,11111222 
ENP,ioos.station.NOAA.NDBC:GBTF1:1,2018-01-04T19:00:00Z,25.1670,-80.8010,1.5,22.13,1111122 
ENP,ioos.station.NOAA.NDBC:GBTF1:1,2018-01-04T20:00:00Z,25.1670,-80.8010,1.5,22.2,1111122 
ENP,ioos.station.NOAA.NDBC:GBTF1:1,2018-01-04T21:00:00Z,25.1670,-80.8010,1.5,24.44,1111122 
ENP,ioos.station.NOAA.NDBC:GBTF1:1,2018-01-04T22:00:00Z,25.1670,-80.8010,1.5,26.13,1111122 
ENP,ioos.station.NOAA.NDBC:GBTF1:1,2018-01-04T23:00:00Z,25.1670,-80.8010,1.5,26.98,1111122 
ENP,ioos.station.NOAA.NDBC:GBTF1:1,2018-01-05T00:00:00Z,25.1670,-80.8010,1.5,27.05,1111122 
ENP,ioos.station.NOAA.NDBC:GBTF1:1,2018-01-05T01:00:00Z,25.1670,-80.8010,1.5,27.12,1111122 
ENP,ioos.station.NOAA.NDBC:GBTF1:1,2018-01-05T02:00:00Z,25.1670,-80.8010,1.5,26.48,1111122 
ENP,ioos.station.NOAA.NDBC:GBTF1:1,2018-01-05T03:00:00Z,25.1670,-80.8010,1.5,26.6,11111222 
ENP,ioos.station.NOAA.NDBC:GBTF1:1,2018-01-05T04:00:00Z,25.1670,-80.8010,1.5,26.56,1111122 
ENP,ioos.station.NOAA.NDBC:GBTF1:1,2018-01-05T05:00:00Z,25.1670,-80.8010,1.5,26.56,1111122 
ENP,ioos.station.NOAA.NDBC:GBTF1:1,2018-01-05T06:00:00Z,25.1670,-80.8010,1.5,26.6,11111222 
ENP,ioos.station.NOAA.NDBC:GBTF1:1,2018-01-05T07:00:00Z,25.1670,-80.8010,1.5,26.48,1111122 
ENP,ioos.station.NOAA.NDBC:GBTF1:1,2018-01-05T08:00:00Z,25.1670,-80.8010,1.5,26.41,1111122 
ENP,ioos.station.NOAA.NDBC:GBTF1:1,2018-01-05T09:00:00Z,25.1670,-80.8010,1.5,26.41,1111122 
ENP,ioos.station.NOAA.NDBC:GBTF1:1,2018-01-05T10:00:00Z,25.1670,-80.8010,1.5,25.92,1111122 
ENP,ioos.station.NOAA.NDBC:GBTF1:1,2018-01-05T11:00:00Z,25.1670,-80.8010,1.5,26.1,11111222 
ENP,ioos.station.NOAA.NDBC:GBTF1:1,2018-01-05T12:00:00Z,25.1670,-80.8010,1.5,26.3,11111222 
ENP,ioos.station.NOAA.NDBC:GBTF1:1,2018-01-05T13:00:00Z,25.1670,-80.8010,1.5,26.56,1111122 
ENP,ioos.station.NOAA.NDBC:GBTF1:1,2018-01-05T14:00:00Z,25.1670,-80.8010,1.5,26.8,11111222 
ENP,ioos.station.NOAA.NDBC:GBTF1:1,2018-01-05T15:00:00Z,25.1670,-80.8010,1.5,26.98,1111122 
ENP,ioos.station.NOAA.NDBC:GBTF1:1,2018-01-05T16:00:00Z,25.1670,-80.8010,1.5,26.91,1111122 
ENP,ioos.station.NOAA.NDBC:GBTF1:1,2018-01-05T17:00:00Z,25.1670,-80.8010,1.5,27.0,11111222 
ENP,ioos.station.NOAA.NDBC:GBTF1:1,2018-01-05T18:00:00Z,25.1670,-80.8010,1.5,26.7,11111222 
ENP,ioos.station.NOAA.NDBC:GBTF1:1,2018-01-05T19:00:00Z,25.1670,-80.8010,1.5,25.14,1111122 
ENP,ioos.station.NOAA.NDBC:GBTF1:1,2018-01-05T20:00:00Z,25.1670,-80.8010,1.5,24.23,1111122 
ENP,ioos.station.NOAA.NDBC:GBTF1:1,2018-01-05T21:00:00Z,25.1670,-80.8010,1.5,24.23,1111122 
ENP,ioos.station.NOAA.NDBC:GBTF1:1,2018-01-05T22:00:00Z,25.1670,-80.8010,1.5,24.23,1111122 
ENP,ioos.station.NOAA.NDBC:GBTF1:1,2018-01-05T23:00:00Z,25.1670,-80.8010,1.5,24.16,1111122 
ENP,ioos.station.NOAA.NDBC:GBTF1:1,2018-01-06T00:00:00Z,25.1670,-80.8010,1.5,24.09,1111122 
ENP,ioos.station.NOAA.NDBC:GBTF1:1,2018-01-06T01:00:00Z,25.1670,-80.8010,1.5,24.09,1111122 
ENP,ioos.station.NOAA.NDBC:GBTF1:1,2018-01-06T02:00:00Z,25.1670,-80.8010,1.5,24.16,1111122 
ENP,ioos.station.NOAA.NDBC:GBTF1:1,2018-01-06T03:00:00Z,25.1670,-80.8010,1.5,24.4,11111222 
ENP,ioos.station.NOAA.NDBC:GBTF1:1,2018-01-06T04:00:00Z,25.1670,-80.8010,1.5,24.65,1111122 
ENP,ioos.station.NOAA.NDBC:GBTF1:1,2018-01-06T05:00:00Z,25.1670,-80.8010,1.5,24.65,1111122 
ENP,ioos.station.NOAA.NDBC:GBTF1:1,2018-01-06T06:00:00Z,25.1670,-80.8010,1.5,24.51,1111122 
ENP,ioos.station.NOAA.NDBC:GBTF1:1,2018-01-06T07:00:00Z,25.1670,-80.8010,1.5,24.5,11111222 
ENP,ioos.station.NOAA.NDBC:GBTF1:1,2018-01-06T08:00:00Z,25.1670,-80.8010,1.5,24.58,1111122 
ENP,ioos.station.NOAA.NDBC:GBTF1:1,2018-01-06T09:00:00Z,25.1670,-80.8010,1.5,24.58,1111122 
ENP,ioos.station.NOAA.NDBC:GBTF1:1,2018-01-06T10:00:00Z,25.1670,-80.8010,1.5,23.88,1111122 
ENP,ioos.station.NOAA.NDBC:GBTF1:1,2018-01-06T11:00:00Z,25.1670,-80.8010,1.5,24.0,11111222 
ENP,ioos.station.NOAA.NDBC:GBTF1:1,2018-01-06T12:00:00Z,25.1670,-80.8010,1.5,23.7,11111222 
ENP,ioos.station.NOAA.NDBC:GBTF1:1,2018-01-06T13:00:00Z,25.1670,-80.8010,1.5,23.6,1111122 
ENP,ioos.station.NOAA.NDBC:GBTF1:1,2018-01-06T14:00:00Z,25.1670,-80.8010,1.5,22.9,1111122 
ENP,ioos.station.NOAA.NDBC:GBTF1:1,2018-01-06T15:00:00Z,25.1670,-80.8010,1.5,22.83,1111122 
ENP,ioos.station.NOAA.NDBC:GBTF1:1,2018-01-06T16:00:00Z,25.1670,-80.8010,1.5,22.13,1111122 
ENP,ioos.station.NOAA.NDBC:GBTF1:1,2018-01-06T17:00:00Z,25.1670,-80.8010,1.5,20.75,1111122 
ENP,ioos.station.NOAA.NDBC:GBTF1:1,2018-01-06T18:00:00Z,25.1670,-80.8010,1.5,19.86,1111122 
ENP,ioos.station.NOAA.NDBC:GBTF1:1,2018-01-06T19:00:00Z,25.1670,-80.8010,1.5,19.79,1111122 
ENP,ioos.station.NOAA.NDBC:GBTF1:1,2018-01-06T20:00:00Z,25.1670,-80.8010,1.5,19.79,1111122 
ENP,ioos.station.NOAA.NDBC:GBTF1:1,2018-01-06T21:00:00Z,25.1670,-80.8010,1.5,20.61,1111122 
ENP,ioos.station.NOAA.NDBC:GBTF1:1,2018-01-06T22:00:00Z,25.1670,-80.8010,1.5,21.3,1111122 
ENP,ioos.station.NOAA.NDBC:GBTF1:1,2018-01-06T23:00:00Z,25.1670,-80.8010,1.5,21.23,1111122 
ENP,ioos.station.NOAA.NDBC:GBTF1:1,2018-01-07T00:00:00Z,25.1670,-80.8010,1.5,19.58,1111122 
ENP,ioos.station.NOAA.NDBC:GBTF1:1,2018-01-07T01:00:00Z,25.1670,-80.8010,1.5,17.27,1111122 
ENP,ioos.station.NOAA.NDBC:GBTF1:1,2018-01-07T02:00:00Z,25.1670,-80.8010,1.5,17.27,1111122 
ENP,ioos.station.NOAA.NDBC:GBTF1:1,2018-01-07T03:00:00Z,25.1670,-80.8010,1.5,17.5,11111222 
ENP,ioos.station.NOAA.NDBC:GBTF1:1,2018-01-07T04:00:00Z,25.1670,-80.8010,1.5,17.14,1111122 
ENP,ioos.station.NOAA.NDBC:GBTF1:1,2018-01-07T05:00:00Z,25.1670,-80.8010,1.5,17.54,1111122 
ENP,ioos.station.NOAA.NDBC:GBTF1:1,2018-01-07T06:00:00Z,25.1670,-80.8010,1.5,17.8,11111222 
ENP,ioos.station.NOAA.NDBC:GBTF1:1,2018-01-07T07:00:00Z,25.1670,-80.8010,1.5,18.36,1111122 
ENP,ioos.station.NOAA.NDBC:GBTF1:1,2018-01-07T08:00:00Z,25.1670,-80.8010,1.5,19.79,1111122 
ENP,ioos.station.NOAA.NDBC:GBTF1:1,2018-01-07T09:00:00Z,25.1670,-80.8010,1.5,17.81,1111122 
ENP,ioos.station.NOAA.NDBC:GBTF1:1,2018-01-07T10:00:00Z,25.1670,-80.8010,1.5,17.75,1111122 
ENP,ioos.station.NOAA.NDBC:GBTF1:1,2018-01-07T11:00:00Z,25.1670,-80.8010,1.5,17.1,11111222 
ENP,ioos.station.NOAA.NDBC:GBTF1:1,2018-01-07T12:00:00Z,25.1670,-80.8010,1.5,17.0,11111222 
ENP,ioos.station.NOAA.NDBC:GBTF1:1,2018-01-07T13:00:00Z,25.1670,-80.8010,1.5,16.67,1111122 
ENP,ioos.station.NOAA.NDBC:GBTF1:1,2018-01-07T14:00:00Z,25.1670,-80.8010,1.5,16.6,1111122 
ENP,ioos.station.NOAA.NDBC:GBTF1:1,2018-01-07T15:00:00Z,25.1670,-80.8010,1.5,16.4,1111122 
ENP,ioos.station.NOAA.NDBC:GBTF1:1,2018-01-07T16:00:00Z,25.1670,-80.8010,1.5,16.0,1111122 
ENP,ioos.station.NOAA.NDBC:GBTF1:1,2018-01-07T17:00:00Z,25.1670,-80.8010,1.5,16.06,1111122 
ENP,ioos.station.NOAA.NDBC:GBTF1:1,2018-01-07T18:00:00Z,25.1670,-80.8010,1.5,16.2,1111122 
ENP,ioos.station.NOAA.NDBC:GBTF1:1,2018-01-07T19:00:00Z,25.1670,-80.8010,1.5,18.02,1111122 
ENP,ioos.station.NOAA.NDBC:GBTF1:1,2018-01-07T20:00:00Z,25.1670,-80.8010,1.5,22.06,1111122 
ENP,ioos.station.NOAA.NDBC:GBTF1:1,2018-01-07T21:00:00Z,25.1670,-80.8010,1.5,24.58,1111122 
ENP,ioos.station.NOAA.NDBC:GBTF1:1,2018-01-07T22:00:00Z,25.1670,-80.8010,1.5,25.14,1111122 
ENP,ioos.station.NOAA.NDBC:GBTF1:1,2018-01-07T23:00:00Z,25.1670,-80.8010,1.5,26.48,1111122 
ENP,ioos.station.NOAA.NDBC:GBTF1:1,2018-01-08T00:00:00Z,25.1670,-80.8010,1.5,27.2,1111122 
ENP,ioos.station.NOAA.NDBC:GBTF1:1,2018-01-08T01:00:00Z,25.1670,-80.8010,1.5,27.48,1111122 
ENP,ioos.station.NOAA.NDBC:GBTF1:1,2018-01-08T02:00:00Z,25.1670,-80.8010,1.5,27.62,1111122 
ENP,ioos.station.NOAA.NDBC:GBTF1:1,2018-01-08T03:00:00Z,25.1670,-80.8010,1.5,27.8,11111222 
ENP,ioos.station.NOAA.NDBC:GBTF1:1,2018-01-08T04:00:00Z,25.1670,-80.8010,1.5,27.84,1111122 
ENP,ioos.station.NOAA.NDBC:GBTF1:1,2018-01-08T05:00:00Z,25.1670,-80.8010,1.5,27.98,1111122 
ENP,ioos.station.NOAA.NDBC:GBTF1:1,2018-01-08T06:00:00Z,25.1670,-80.8010,1.5,28.1,11111222 
ENP,ioos.station.NOAA.NDBC:GBTF1:1,2018-01-08T07:00:00Z,25.1670,-80.8010,1.5,28.19,1111122 
ENP,ioos.station.NOAA.NDBC:GBTF1:1,2018-01-08T08:00:00Z,25.1670,-80.8010,1.5,28.27,1111122 
ENP,ioos.station.NOAA.NDBC:GBTF1:1,2018-01-08T09:00:00Z,25.1670,-80.8010,1.5,28.3,11111222 
ENP,ioos.station.NOAA.NDBC:GBTF1:1,2018-01-08T10:00:00Z,25.1670,-80.8010,1.5,28.05,1111122 
ENP,ioos.station.NOAA.NDBC:GBTF1:1,2018-01-08T11:00:00Z,25.1670,-80.8010,1.5,27.8,11111222 
ENP,ioos.station.NOAA.NDBC:GBTF1:1,2018-01-08T12:00:00Z,25.1670,-80.8010,1.5,27.8,11111222 
ENP,ioos.station.NOAA.NDBC:GBTF1:1,2018-01-08T13:00:00Z,25.1670,-80.8010,1.5,27.84,1111122 
ENP,ioos.station.NOAA.NDBC:GBTF1:1,2018-01-08T14:00:00Z,25.1670,-80.8010,1.5,27.91,1111122 
ENP,ioos.station.NOAA.NDBC:GBTF1:1,2018-01-08T15:00:00Z,25.1670,-80.8010,1.5,27.91,1111122 
ENP,ioos.station.NOAA.NDBC:GBTF1:1,2018-01-08T16:00:00Z,25.1670,-80.8010,1.5,27.91,1111122 
ENP,ioos.station.NOAA.NDBC:GBTF1:1,2018-01-08T17:00:00Z,25.1670,-80.8010,1.5,27.91,1111122 
ENP,ioos.station.NOAA.NDBC:GBTF1:1,2018-01-08T18:00:00Z,25.1670,-80.8010,1.5,27.9,11111222 
ENP,ioos.station.NOAA.NDBC:GBTF1:1,2018-01-08T19:00:00Z,25.1670,-80.8010,1.5,27.91,1111122 
ENP,ioos.station.NOAA.NDBC:GBTF1:1,2018-01-08T20:00:00Z,25.1670,-80.8010,1.5,28.05,1111122 
ENP,ioos.station.NOAA.NDBC:GBTF1:1,2018-01-08T21:00:00Z,25.1670,-80.8010,1.5,28.27,1111122 
ENP,ioos.station.NOAA.NDBC:GBTF1:1,2018-01-08T22:00:00Z,25.1670,-80.8010,1.5,28.41,1111122 
ENP,ioos.station.NOAA.NDBC:GBTF1:1,2018-01-08T23:00:00Z,25.1670,-80.8010,1.5,28.41,1111122 
ENP,ioos.station.NOAA.NDBC:GBTF1:1,2018-01-09T00:00:00Z,25.1670,-80.8010,1.5,28.55,1111122 
ENP,ioos.station.NOAA.NDBC:GBTF1:1,2018-01-09T01:00:00Z,25.1670,-80.8010,1.5,28.62,1111122 
ENP,ioos.station.NOAA.NDBC:GBTF1:1,2018-01-09T02:00:00Z,25.1670,-80.8010,1.5,28.8,11111222 
ENP,ioos.station.NOAA.NDBC:GBTF1:1,2018-01-09T03:00:00Z,25.1670,-80.8010,1.5,28.8,11111222 
ENP,ioos.station.NOAA.NDBC:GBTF1:1,2018-01-09T04:00:00Z,25.1670,-80.8010,1.5,28.77,1111122 
ENP,ioos.station.NOAA.NDBC:GBTF1:1,2018-01-09T05:00:00Z,25.1670,-80.8010,1.5,28.62,1111122 
ENP,ioos.station.NOAA.NDBC:GBTF1:1,2018-01-09T06:00:00Z,25.1670,-80.8010,1.5,28.6,11111222 
ENP,ioos.station.NOAA.NDBC:GBTF1:1,2018-01-09T07:00:00Z,25.1670,-80.8010,1.5,28.7,11111222 
ENP,ioos.station.NOAA.NDBC:GBTF1:1,2018-01-09T08:00:00Z,25.1670,-80.8010,1.5,28.7,1111122 
ENP,ioos.station.NOAA.NDBC:GBTF1:1,2018-01-09T09:00:00Z,25.1670,-80.8010,1.5,28.7,1111122 
ENP,ioos.station.NOAA.NDBC:GBTF1:1,2018-01-09T10:00:00Z,25.1670,-80.8010,1.5,28.77,1111122 
ENP,ioos.station.NOAA.NDBC:GBTF1:1,2018-01-09T11:00:00Z,25.1670,-80.8010,1.5,28.8,11111222 
ENP,ioos.station.NOAA.NDBC:GBTF1:1,2018-01-09T12:00:00Z,25.1670,-80.8010,1.5,28.84,1111122 
ENP,ioos.station.NOAA.NDBC:GBTF1:1,2018-01-09T13:00:00Z,25.1670,-80.8010,1.5,28.77,1111122 
ENP,ioos.station.NOAA.NDBC:GBTF1:1,2018-01-09T14:00:00Z,25.1670,-80.8010,1.5,28.77,1111122 
ENP,ioos.station.NOAA.NDBC:GBTF1:1,2018-01-09T15:00:00Z,25.1670,-80.8010,1.5,28.7,1111122 
ENP,ioos.station.NOAA.NDBC:GBTF1:1,2018-01-09T16:00:00Z,25.1670,-80.8010,1.5,28.77,1111122 
ENP,ioos.station.NOAA.NDBC:GBTF1:1,2018-01-09T17:00:00Z,25.1670,-80.8010,1.5,28.7,1111122 
ENP,ioos.station.NOAA.NDBC:GBTF1:1,2018-01-09T18:00:00Z,25.1670,-80.8010,1.5,28.77,1111122 
ENP,ioos.station.NOAA.NDBC:GBTF1:1,2018-01-09T19:00:00Z,25.1670,-80.8010,1.5,28.7,1111122 
ENP,ioos.station.NOAA.NDBC:GBTF1:1,2018-01-09T20:00:00Z,25.1670,-80.8010,1.5,28.62,1111122 
ENP,ioos.station.NOAA.NDBC:GBTF1:1,2018-01-09T21:00:00Z,25.1670,-80.8010,1.5,28.62,1111122 
ENP,ioos.station.NOAA.NDBC:GBTF1:1,2018-01-09T22:00:00Z,25.1670,-80.8010,1.5,28.62,1111122 
ENP,ioos.station.NOAA.NDBC:GBTF1:1,2018-01-09T23:00:00Z,25.1670,-80.8010,1.5,28.62,1111122 
ENP,ioos.station.NOAA.NDBC:GBTF1:1,2018-01-10T00:00:00Z,25.1670,-80.8010,1.5,28.62,1111122 
ENP,ioos.station.NOAA.NDBC:GBTF1:1,2018-01-10T01:00:00Z,25.1670,-80.8010,1.5,28.62,1111122 
ENP,ioos.station.NOAA.NDBC:GBTF1:1,2018-01-10T02:00:00Z,25.1670,-80.8010,1.5,28.7,1111122 
ENP,ioos.station.NOAA.NDBC:GBTF1:1,2018-01-10T03:00:00Z,25.1670,-80.8010,1.5,28.7,11111222 
ENP,ioos.station.NOAA.NDBC:GBTF1:1,2018-01-10T04:00:00Z,25.1670,-80.8010,1.5,28.77,1111122 
ENP,ioos.station.NOAA.NDBC:GBTF1:1,2018-01-10T05:00:00Z,25.1670,-80.8010,1.5,28.77,1111122 
ENP,ioos.station.NOAA.NDBC:GBTF1:1,2018-01-10T06:00:00Z,25.1670,-80.8010,1.5,28.8,11111222 
ENP,ioos.station.NOAA.NDBC:GBTF1:1,2018-01-10T07:00:00Z,25.1670,-80.8010,1.5,28.8,11111222 
ENP,ioos.station.NOAA.NDBC:GBTF1:1,2018-01-10T08:00:00Z,25.1670,-80.8010,1.5,28.8,11111222 
ENP,ioos.station.NOAA.NDBC:GBTF1:1,2018-01-10T09:00:00Z,25.1670,-80.8010,1.5,28.84,1111122 
ENP,ioos.station.NOAA.NDBC:GBTF1:1,2018-01-10T10:00:00Z,25.1670,-80.8010,1.5,28.84,1111122 
ENP,ioos.station.NOAA.NDBC:GBTF1:1,2018-01-10T11:00:00Z,25.1670,-80.8010,1.5,28.8,11111222 
ENP,ioos.station.NOAA.NDBC:GBTF1:1,2018-01-10T12:00:00Z,25.1670,-80.8010,1.5,28.84,1111122 
ENP,ioos.station.NOAA.NDBC:GBTF1:1,2018-01-10T13:00:00Z,25.1670,-80.8010,1.5,28.77,1111122 
ENP,ioos.station.NOAA.NDBC:GBTF1:1,2018-01-10T14:00:00Z,25.1670,-80.8010,1.5,28.84,1111122 
ENP,ioos.station.NOAA.NDBC:GBTF1:1,2018-01-10T15:00:00Z,25.1670,-80.8010,1.5,28.84,1111122 
ENP,ioos.station.NOAA.NDBC:GBTF1:1,2018-01-10T16:00:00Z,25.1670,-80.8010,1.5,28.84,1111122 
ENP,ioos.station.NOAA.NDBC:GBTF1:1,2018-01-10T17:00:00Z,25.1670,-80.8010,1.5,28.77,1111122 
ENP,ioos.station.NOAA.NDBC:GBTF1:1,2018-01-10T18:00:00Z,25.1670,-80.8010,1.5,28.84,1111122 
ENP,ioos.station.NOAA.NDBC:GBTF1:1,2018-01-10T19:00:00Z,25.1670,-80.8010,1.5,28.77,1111122 
ENP,ioos.station.NOAA.NDBC:GBTF1:1,2018-01-10T20:00:00Z,25.1670,-80.8010,1.5,28.77,1111122 
ENP,ioos.station.NOAA.NDBC:GBTF1:1,2018-01-10T21:00:00Z,25.1670,-80.8010,1.5,28.84,1111122 
ENP,ioos.station.NOAA.NDBC:GBTF1:1,2018-01-10T22:00:00Z,25.1670,-80.8010,1.5,28.84,1111122 
ENP,ioos.station.NOAA.NDBC:GBTF1:1,2018-01-10T23:00:00Z,25.1670,-80.8010,1.5,28.8,11111222 
ENP,ioos.station.NOAA.NDBC:GBTF1:1,2018-01-11T00:00:00Z,25.1670,-80.8010,1.5,28.84,1111122 
ENP,ioos.station.NOAA.NDBC:GBTF1:1,2018-01-11T01:00:00Z,25.1670,-80.8010,1.5,28.84,1111122 
ENP,ioos.station.NOAA.NDBC:GBTF1:1,2018-01-11T02:00:00Z,25.1670,-80.8010,1.5,28.91,1111122 
ENP,ioos.station.NOAA.NDBC:GBTF1:1,2018-01-11T03:00:00Z,25.1670,-80.8010,1.5,28.9,11111222 
ENP,ioos.station.NOAA.NDBC:GBTF1:1,2018-01-11T04:00:00Z,25.1670,-80.8010,1.5,28.8,11111222 
ENP,ioos.station.NOAA.NDBC:GBTF1:1,2018-01-11T05:00:00Z,25.1670,-80.8010,1.5,28.77,1111122 
ENP,ioos.station.NOAA.NDBC:GBTF1:1,2018-01-11T06:00:00Z,25.1670,-80.8010,1.5,28.8,11111222 
ENP,ioos.station.NOAA.NDBC:GBTF1:1,2018-01-11T07:00:00Z,25.1670,-80.8010,1.5,28.9,11111222 
ENP,ioos.station.NOAA.NDBC:GBTF1:1,2018-01-11T08:00:00Z,25.1670,-80.8010,1.5,28.91,1111122 
ENP,ioos.station.NOAA.NDBC:GBTF1:1,2018-01-11T09:00:00Z,25.1670,-80.8010,1.5,28.98,1111122 
ENP,ioos.station.NOAA.NDBC:GBTF1:1,2018-01-11T10:00:00Z,25.1670,-80.8010,1.5,29.05,1111122 
ENP,ioos.station.NOAA.NDBC:GBTF1:1,2018-01-11T11:00:00Z,25.1670,-80.8010,1.5,28.9,11111222 
ENP,ioos.station.NOAA.NDBC:GBTF1:1,2018-01-11T12:00:00Z,25.1670,-80.8010,1.5,28.84,1111122 
ENP,ioos.station.NOAA.NDBC:GBTF1:1,2018-01-11T13:00:00Z,25.1670,-80.8010,1.5,28.84,1111122 
ENP,ioos.station.NOAA.NDBC:GBTF1:1,2018-01-11T14:00:00Z,25.1670,-80.8010,1.5,28.84,1111122 
ENP,ioos.station.NOAA.NDBC:GBTF1:1,2018-01-11T15:00:00Z,25.1670,-80.8010,1.5,28.77,1111122 
ENP,ioos.station.NOAA.NDBC:GBTF1:1,2018-01-11T16:00:00Z,25.1670,-80.8010,1.5,28.84,1111122 
ENP,ioos.station.NOAA.NDBC:GBTF1:1,2018-01-11T17:00:00Z,25.1670,-80.8010,1.5,28.7,1111122 
ENP,ioos.station.NOAA.NDBC:GBTF1:1,2018-01-11T18:00:00Z,25.1670,-80.8010,1.5,28.62,1111122 
ENP,ioos.station.NOAA.NDBC:GBTF1:1,2018-01-11T19:00:00Z,25.1670,-80.8010,1.5,28.62,1111122 
ENP,ioos.station.NOAA.NDBC:GBTF1:1,2018-01-11T20:00:00Z,25.1670,-80.8010,1.5,28.55,1111122 